Regional Weather Roundup
Issued by NWS

Home | Current Version | Previous Version | Graphics & Text | Print | Product List | Glossary On
Versions: 1 2 3 4 5 6 7 8 9 10 11 12 13 14 15 16 17 18 19 20 21 22 23 24 25 26 27 28 29 30 31 32 33 34 35 36 37 38 39 40 41 42 43 44 45 46 47 48 49 50
000
ASUS43 KDMX 212206
RWRIA

WEATHER ROUNDUP FOR IOWA
NATIONAL WEATHER SERVICE DES MOINES IA
500 PM CDT SAT OCT 21 2017

NOTE: "FAIR" INDICATES FEW OR NO CLOUDS BELOW 12,000 FEET WITH NO
SIGNIFICANT WEATHER AND/OR OBSTRUCTIONS TO VISIBILITY.

* - THESE STATIONS ARE NOT NWS STATIONS...THUS NOT UNDER NWS
QUALITY CONTROL.  THEY ALSO DO NOT REPORT WEATHER SUCH
AS PRECIPITATION OR FOG.

IAZ001>003-012>014-020>022-031>034-043>046-212300-
   NORTHWEST IOWA

CITY           SKY/WX    TMP DP  RH WIND       PRES   REMARKS
CHEROKEE *     CLOUDY    57  47  68 NW12G17   29.77R
DENISON *      CLOUDY    57  48  72 NW10      29.79R
LE MARS *      CLOUDY    55  43  62 NW13G20   29.79R
ORANGE CITY *  CLOUDY    55  46  71 NW20      29.77S
SHELDON *      CLOUDY    55  45  67 NW15G26   29.74R
SIOUX CITY     CLOUDY    56  43  61 NW17G28   29.79R
SPENCER        LGT RAIN  57  47  69 W20G30    29.74R
STORM LAKE *   CLOUDY    55  46  71 NW21G30   29.76R
$$

IAZ055>058-069>071-079>083-090>094-212300-
   SOUTHWEST IOWA

CITY           SKY/WX    TMP DP  RH WIND       PRES   REMARKS
ATLANTIC *     DRIZZLE   59  55  88 NW20G35   29.77R
AUDUBON *      HVY RAIN  63  59  88 NW18G29   29.77R VSB 1
CLARINDA *     CLOUDY    70  66  88 SW15G23   29.78R HAZE
COUNCIL BLFS * MOSUNNY   61  48  63 NW12G23   29.80R
CRESTON *      CLOUDY    72  63  73 S17G30    29.77R
HARLAN  *      CLOUDY    59  52  77 NW13G23   29.82R
LAMONI         CLOUDY    73  63  70 S15G21    29.77F
RED OAK *      CLOUDY    64  57  77 NW13G26   29.77R
SHENANDOAH *   CLOUDY    66  59  77 NW13G21   29.77R
$$

IAZ047>049-059>061-072>074-084-212300-
   CENTRAL IOWA

CITY           SKY/WX    TMP DP  RH WIND       PRES   REMARKS
AMES           CLOUDY    72  63  73 S17G26    29.74F
ANKENY *       PTSUNNY   73  63  68 S15G23    29.76R
BOONE *        CLOUDY    72  63  73 S15G22    29.73R
CHARITON *     CLOUDY    73  63  68 S16G23    29.78F
DES MOINES     CLOUDY    75  62  64 S18G32    29.75S
GRINNELL*      CLOUDY    73  61  66 S14G22    29.81F
KNOXVILLE *    PTSUNNY   73  61  64 S15G23    29.77F
MARSHALLTOWN   CLOUDY    72  61  68 S21G26    29.75F
NEWTON *       PTSUNNY   75  61  60 S23G31    29.77F
PELLA *        SUNNY     75  61  62 S12G20    29.79F
PERRY *        CLOUDY    73  64  73 S15       29.73R
$$

IAZ004>006-015-016-023>025-035-036-212300-
   NORTH CENTRAL IOWA

CITY           SKY/WX    TMP DP  RH WIND       PRES   REMARKS
ALGONA *       CLOUDY    70  63  78 S15G24    29.70R
CLARION *      CLOUDY    70  64  83 S21G26    29.72R
ESTHERVILLE    CLOUDY    57  53  86 W10G22    29.71R
FORT DODGE *   CLOUDY    70  62  76 S13G23    29.71R
MASON CITY     MOSUNNY   68  59  73 S22G29    29.73F
FOREST CITY *    N/A     68  61  77 S18G25    29.71F
WEBSTER CITY * CLOUDY    72  61  68 S14G23    29.70F
IOWA FALLS *   CLOUDY    71  61  71 S14       29.77S
$$

IAZ007>011-017>019-026>030-037>042-050>054-066-212300-
   NORTHEAST IOWA

CITY           SKY/WX    TMP DP  RH WIND       PRES   REMARKS
CEDAR RAPIDS   CLOUDY    76  61  59 S9        29.83S
CHARLES CITY * CLOUDY    70  61  73 S12G18    29.78S
CLINTON *      CLOUDY    76  61  59 S15       29.89S
DECORAH *      CLOUDY    72  61  68 S6G13     29.81F
DUBUQUE        CLOUDY    74  59  59 S12       29.88R
MONTICELLO *   PTSUNNY   77  61  57 S13G22    29.84F
OELWEIN *      CLOUDY    72  61  68 S13       29.82F
WATERLOO       CLOUDY    71  59  65 S16       29.78F
$$

IAZ064-065-067-068-078-212300-
   EAST CENTRAL IOWA

CITY           SKY/WX    TMP DP  RH WIND       PRES   REMARKS
DAVENPORT      CLOUDY    77  59  53 S9        29.90R
IOWA CITY      CLOUDY    78  61  55 S9        29.85F HX  80
MUSCATINE *    CLOUDY    79  61  53 S13G18    29.86S HX  80
QUAD CITIES    CLOUDY    78  60  53 S13       29.88R
$$

IAZ062-063-075>077-085>089-095>099-212300-
   SOUTHEAST IOWA

CITY           SKY/WX    TMP DP  RH WIND       PRES   REMARKS
BURLINGTON     CLOUDY    77  63  61 S12       29.88R
FAIRFIELD *    CLOUDY    77  59  53 S12G17    29.84S
FORT MADISON * CLOUDY    79  63  57 S10       29.89S HX  80
KEOKUK *       CLOUDY    77  63  61 S9        29.87S
OSKALOOSA *    CLOUDY    75  61  60 S16       29.82F
OTTUMWA        CLOUDY    76  61  59 S10       29.82F
WASHINGTON *   PTSUNNY   79  61  53 S17G25    29.86S HX  80
$$

ABBREVIATIONS USED IN REMARKS
   TC - TEMPERATURES IN CELSIUS
  WCI - WIND CHILL INDEX
   HX - HEAT INDEX
  VSB - VISIBILITY
$$




USA.gov is the U.S. government's official web portal to all federal, state and local government web resources and services.